Location: Azul
(36.7830°S, 59.8500°W)
Time: 09:08:05
(UTC-03:00)

UKube-1 - Pass Details

Date: 24 October 2021
Orbit: 611 x 617 km, 98.4° (Epoch: 07 December)

Event Time Altitude Azimuth Distance (km) Brightness Sun altitude
Exits shadow 21:36:03 25° 324° (NW) 1,269 ? -24.2°
Maximum altitude 21:37:51 35° 279° (W) 1,005 ? -24.5°
Drops below altitude 10° 21:41:51 10° 212° (SSW) 2,004 ? -25.1°
Sets 21:44:13 0° 202° (SSW) 2,918 ? -25.5°
